Terminal Aerodrome Forecast
Issued by NWS Atlanta, GA

Home | Current Version | Previous Version | Text Only | Print | Product List | Glossary On
Versions: 1 2 3 4 5 6 7 8 9 10 11 12 13 14 15 16 17 18 19 20 21 22
000
FTUS42 KFFC 311742
TAFCSG
TAF
KCSG 311742Z 3118/0118 VRB05KT P6SM VCSH BKN050
      TEMPO 3118/3122 VRB10G20KT 5SM -TSRA BKN050CB
     FM010100 04003KT P6SM SCT060
     FM010300 03003KT P6SM FEW250
     FM011500 05004KT P6SM FEW040=

USA.gov is the U.S. government's official web portal to all federal, state and local government web resources and services.